Estación de Lebu INIA
Ultimos registro cada 15 minutos 63
| N° | Estación | Fecha / Hora | Temperatura | Humedad | Lluvia | Velocidad | Dirección | Radiación | Presion |
| 63 | Lebu INIA | 07-05-2026 15:30 | 10,3 | 74,1 | 0 | 0 | 0 | 139 | 1116 |
| 62 | Lebu INIA | 07-05-2026 15:15 | 10,5 | 72,8 | 0 | 0 | 0 | 137 | 1117 |
| 61 | Lebu INIA | 07-05-2026 15:00 | 10,7 | 71,8 | 0 | 0 | 201 | 228 | 1110 |
| 60 | Lebu INIA | 07-05-2026 14:45 | 10,9 | 70,5 | 0 | 0,1 | 286 | 321 | 1129 |
| 59 | Lebu INIA | 07-05-2026 14:30 | 10,7 | 72,6 | 0 | 0 | 0 | 416 | 1132 |
| 58 | Lebu INIA | 07-05-2026 14:15 | 10,4 | 71,2 | 0 | 0 | 234 | 234 | 1126 |
| 57 | Lebu INIA | 07-05-2026 14:00 | 10,4 | 73,6 | 0 | 0 | 183 | 188 | 1130 |
| 56 | Lebu INIA | 07-05-2026 13:45 | 10,4 | 73,3 | 0 | 0 | 0 | 234 | 1126 |
| 55 | Lebu INIA | 07-05-2026 13:30 | 10,5 | 72,8 | 0 | 0 | 0 | 277 | 1116 |
| 54 | Lebu INIA | 07-05-2026 13:15 | 10,5 | 73,2 | 0 | 0,1 | 166 | 239 | 1126 |
| 53 | Lebu INIA | 07-05-2026 13:00 | 10,5 | 76,4 | 0 | 0 | 190 | 296 | 1135 |
| 52 | Lebu INIA | 07-05-2026 12:45 | 10,3 | 76 | 0 | 0 | 0 | 281 | 1126 |
| 51 | Lebu INIA | 07-05-2026 12:30 | 10,2 | 75,2 | 0 | 0 | 0 | 243 | 1132 |
| 50 | Lebu INIA | 07-05-2026 12:15 | 10,3 | 79,2 | 0 | 0 | 0 | 246 | 1108 |
| 49 | Lebu INIA | 07-05-2026 12:00 | 10,2 | 78,5 | 0 | 0 | 0 | 274 | 1116 |
| 48 | Lebu INIA | 07-05-2026 11:45 | 10 | 77 | 0 | 0 | 0 | 296 | 1121 |
| 47 | Lebu INIA | 07-05-2026 11:30 | 10,1 | 78,3 | 0 | 0 | 0 | 321 | 1116 |
| 46 | Lebu INIA | 07-05-2026 11:15 | 9,8 | 77,9 | 0 | 0,1 | 153 | 424 | 1113 |
| 45 | Lebu INIA | 07-05-2026 11:00 | 9,3 | 80,3 | 0 | 0 | 116 | 309 | 1121 |
| 44 | Lebu INIA | 07-05-2026 10:45 | 9,4 | 81,9 | 0 | 1,2 | 172 | 255 | 1108 |
| 43 | Lebu INIA | 07-05-2026 10:30 | 9,8 | 75,8 | 0 | 0,4 | 188 | 288 | 1106 |
| 42 | Lebu INIA | 07-05-2026 10:15 | 9,8 | 79 | 0 | 0 | 0 | 408 | 1111 |
| 41 | Lebu INIA | 07-05-2026 10:00 | 9,4 | 80,1 | 0 | 0 | 172 | 363 | 1108 |
| 40 | Lebu INIA | 07-05-2026 09:45 | 8,8 | 85 | 0 | 0 | 0 | 328 | 1110 |
| 39 | Lebu INIA | 07-05-2026 09:30 | 8,5 | 87,7 | 0 | 0 | 0 | 281 | 1110 |
| 38 | Lebu INIA | 07-05-2026 09:15 | 8,1 | 91,3 | 0 | 0 | 0 | 250 | 1120 |
| 37 | Lebu INIA | 07-05-2026 09:00 | 7,7 | 93,9 | 0 | 0 | 0 | 228 | 1116 |
| 36 | Lebu INIA | 07-05-2026 08:45 | 7 | 96,5 | 0 | 0 | 0 | 140 | 1120 |
| 35 | Lebu INIA | 07-05-2026 08:30 | 6,9 | 97,1 | 0 | 0 | 0 | 35 | 1126 |
| 34 | Lebu INIA | 07-05-2026 08:15 | 6,8 | 97,6 | 0 | 0 | 0 | 34 | 1119 |
| 33 | Lebu INIA | 07-05-2026 08:00 | 6,9 | 97,3 | 0 | 0 | 0 | 11 | 1115 |
| 32 | Lebu INIA | 07-05-2026 07:45 | 7,2 | 97,2 | 0 | 0 | 0 | 3 | 1117 |
| 31 | Lebu INIA | 07-05-2026 07:30 | 7,3 | 97,3 | 0 | 0 | 0 | 0 | 1117 |
| 30 | Lebu INIA | 07-05-2026 07:15 | 7,4 | 97,3 | 0,1 | 0 | 0 | 0 | 1126 |
| 29 | Lebu INIA | 07-05-2026 07:00 | 7,5 | 97,1 | 0 | 0 | 0 | 0 | 1121 |
| 28 | Lebu INIA | 07-05-2026 06:45 | 7,5 | 97,1 | 0 | 0 | 0 | 0 | 1116 |
| 27 | Lebu INIA | 07-05-2026 06:30 | 7,5 | 97,1 | 0,1 | 0 | 0 | 0 | 1117 |
| 26 | Lebu INIA | 07-05-2026 06:15 | 7,5 | 97,2 | 0 | 0 | 0 | 0 | 1119 |
| 25 | Lebu INIA | 07-05-2026 06:00 | 7,5 | 97,4 | 0 | 0 | 0 | 0 | 1120 |
| 24 | Lebu INIA | 07-05-2026 05:45 | 7,6 | 97,3 | 0 | 0 | 0 | 0 | 1114 |
| 23 | Lebu INIA | 07-05-2026 05:30 | 7,7 | 97,4 | 0 | 0 | 0 | 0 | 1119 |
| 22 | Lebu INIA | 07-05-2026 05:15 | 7,8 | 97,5 | 0 | 0,1 | 184 | 0 | 1118 |
| 21 | Lebu INIA | 07-05-2026 05:00 | 7,7 | 97,6 | 0,5 | 0,1 | 184 | 0 | 1117 |
| 20 | Lebu INIA | 07-05-2026 04:45 | 7,8 | 97,5 | 0 | 0 | 0 | 0 | 1117 |
| 19 | Lebu INIA | 07-05-2026 04:30 | 8,1 | 97,5 | 0 | 0 | 0 | 0 | 1114 |
| 18 | Lebu INIA | 07-05-2026 04:15 | 8,3 | 97,4 | 0 | 0 | 0 | 0 | 1120 |
| 17 | Lebu INIA | 07-05-2026 04:00 | 8,4 | 97,6 | 0 | 0 | 0 | 0 | 1119 |
| 16 | Lebu INIA | 07-05-2026 03:45 | 8,5 | 97,5 | 0 | 0 | 0 | 0 | 1119 |
| 15 | Lebu INIA | 07-05-2026 03:30 | 8,5 | 97,5 | 0 | 0 | 0 | 0 | 1111 |
| 14 | Lebu INIA | 07-05-2026 03:15 | 8,5 | 97,5 | 0 | 0 | 0 | 0 | 1111 |
| 13 | Lebu INIA | 07-05-2026 03:00 | 8,5 | 97,4 | 0,1 | 0 | 0 | 0 | 1113 |
| 12 | Lebu INIA | 07-05-2026 02:45 | 8,6 | 97,5 | 0,3 | 0,2 | 192 | 0 | 1116 |
| 11 | Lebu INIA | 07-05-2026 02:30 | 8,6 | 97,5 | 0 | 0 | 0 | 0 | 1118 |
| 10 | Lebu INIA | 07-05-2026 02:15 | 8,7 | 97,4 | 0,1 | 0 | 0 | 0 | 1110 |
| 9 | Lebu INIA | 07-05-2026 02:00 | 8,8 | 97,3 | 0 | 0 | 0 | 0 | 1115 |
| 8 | Lebu INIA | 07-05-2026 01:45 | 8,8 | 97,2 | 0,1 | 0 | 157 | 0 | 1112 |
| 7 | Lebu INIA | 07-05-2026 01:30 | 8,8 | 97 | 0,2 | 0 | 0 | 0 | 1115 |
| 6 | Lebu INIA | 07-05-2026 01:15 | 8,8 | 96,8 | 0,1 | 0 | 188 | 0 | 1113 |
| 5 | Lebu INIA | 07-05-2026 01:00 | 8,8 | 96,5 | 0 | 0,1 | 206 | 0 | 1113 |
| 4 | Lebu INIA | 07-05-2026 00:45 | 8,7 | 96,2 | 0,4 | 0 | 0 | 0 | 1109 |
| 3 | Lebu INIA | 07-05-2026 00:30 | 8,7 | 95,9 | 0 | 0 | 0 | 0 | 1109 |
| 2 | Lebu INIA | 07-05-2026 00:15 | 8,7 | 95,8 | 0 | 0 | 0 | 0 | 1110 |
| 1 | Lebu INIA | 07-05-2026 00:00 | 8,7 | 95,7 | 0 | 0 | 0 | 0 | 1111 |